Mountain Home, Arkansas, United States (72653)
Lat: 36.34N, Lon: 92.39W
Wx Zone: ARZ005
Local Info
Past Weather Observations for Monday, October 20, 2014

NOTE: This archive is for the closest National Weather Service station to Mountain Home. Information may differ from the station used for current weather conditions.

Click here for Long-term Archive

Time Weather Temperature Dewpoint Humidity Pressure Winds Precip Visibility
23:53
Clear
Fog And Mist
57°F / 14°C 57°F / 14°C 100% 30.06 in
(1018 mb)
NW 3.5 mph
(NW 6 kph)
- 6SM
22:53
Clear
Fog And Mist
55°F / 13°C 55°F / 13°C 100% 30.06 in
(1018 mb)
NNW 3.5 mph
(NNW 6 kph)
- 5SM
21:53
Clear
Fog And Mist
57°F / 14°C 55°F / 13°C 94% 30.06 in
(1018 mb)
Calm - 5SM
20:53
Clear
61°F / 16°C 57°F / 14°C 88% 30.06 in
(1018 mb)
Calm - 8SM
19:53
Clear
63°F / 17°C 57°F / 14°C 83% 30.04 in
(1017 mb)
SSW 3.5 mph
(SSW 6 kph)
- 9SM
18:53
Clear
64°F / 18°C 57°F / 14°C 78% 30.04 in
(1017 mb)
SSW 3.5 mph
(SSW 6 kph)
- 9SM
17:53
Clear
66°F / 19°C 57°F / 14°C 73% 30.01 in
(1016 mb)
SSW 3.5 mph
(SSW 6 kph)
- 9SM
16:53
Clear
68°F / 20°C 57°F / 14°C 69% 30.01 in
(1016 mb)
Calm - 8SM
15:53
Partly Cloudy
70°F / 21°C 57°F / 14°C 64% 30.01 in
(1016 mb)
SSW 4.6 mph
(SSW 7 kph)
- 8SM
14:53
Overcast
70°F / 21°C 57°F / 14°C 64% 30.01 in
(1016 mb)
Variable 3.5 mph
(Variable 6 kph)
- 9SM
13:53
Partly Cloudy
72°F / 22°C 57°F / 14°C 61% 30.01 in
(1016 mb)
Variable 6.9 mph
(Variable 11 kph)
- 8SM
12:53
Overcast
70°F / 21°C 55°F / 13°C 60% 30.04 in
(1017 mb)
Variable 4.6 mph
(Variable 7 kph)
- 9SM
11:53
Mostly Cloudy
68°F / 20°C 55°F / 13°C 64% 30.04 in
(1017 mb)
Variable 4.6 mph
(Variable 7 kph)
- 9SM
10:53
Overcast
66°F / 19°C 55°F / 13°C 68% 30.06 in
(1018 mb)
Variable 4.6 mph
(Variable 7 kph)
- 8SM
09:53
Mostly Cloudy
63°F / 17°C 54°F / 12°C 73% 30.06 in
(1018 mb)
Variable 4.6 mph
(Variable 7 kph)
- 10SM
08:53
Overcast
61°F / 16°C 52°F / 11°C 72% 30.06 in
(1018 mb)
Calm - 9SM
07:53
Overcast
55°F / 13°C 52°F / 11°C 88% 30.06 in
(1018 mb)
SW 3.5 mph
(SW 6 kph)
- 9SM
06:53
Overcast
54°F / 12°C 48°F / 9°C 82% 30.06 in
(1018 mb)
Calm - 10SM
05:53
Overcast
54°F / 12°C 48°F / 9°C 82% 30.06 in
(1018 mb)
Calm - 10SM
04:53
Overcast
54°F / 12°C 48°F / 9°C 82% 30.06 in
(1018 mb)
SW 4.6 mph
(SW 7 kph)
- 10SM
03:53
Overcast
54°F / 12°C 48°F / 9°C 82% 30.04 in
(1017 mb)
SW 3.5 mph
(SW 6 kph)
- 10SM
02:53
Overcast
54°F / 12°C 48°F / 9°C 82% 30.04 in
(1017 mb)
Calm 0.00 in
(0.00 mm)
10SM
01:53
Overcast
54°F / 12°C 48°F / 9°C 82% 30.06 in
(1018 mb)
Calm - 10SM
00:53
Mostly Cloudy
52°F / 11°C 48°F / 9°C 88% 30.06 in
(1018 mb)
Calm - 10SM
Time Weather Temperature Dewpoint Humidity Pressure Winds Precip Visibility


Weather for websites

WeatherForYou.com, LLC is not responsible for any damages or problems caused by this service. Current weather conditions are obtained from the closest station including government and personal stations which may have varying degrees of accuracy. Weather forecasts are derived from the NOAA NDFD. Like all things, this site belongs to Jesus Christ... He just trusts me to maintain it. If you have any questions or comments email webmaster@weatherforyou.com

Copyright © 2014, WeatherForYou.com LLC. All rights reserved.